Temp_Advection
nan nan nan nan nan nan nan nan nan nan nan nan nan nan nan nan nan nan nan nan nan nan nan nan nan nan nan nan nan nan nan nan nan nan nan nan nan nan
nan 0 0 0 0 -0 -0 0 0 0 0 0 -0 0 1 1 1 1 0 0 0 0 -0 -0 -0 0 -0 -0 -0 0 -0 -0 -0 0 -0 -0 0 nan
nan 0 0 0 -0 0 0 0 0 0 1 1 -0 -0 1 1 1 1 0 1 0 -0 -0 -0 0 0 -0 -0 0 -0 -0 -0 -0 -0 0 -0 0 nan
nan 0 0 0 0 0 0 1 1 1 1 0 -0 0 1 1 1 1 1 1 -0 -0 -0 -0 0 0 0 -0 -0 -0 -0 -0 -0 0 -0 0 0 nan
nan 0 1 1 1 1 1 1 1 1 0 0 1 1 1 0 1 1 0 0 -0 -0 0 -0 0 0 0 -0 -0 -0 -0 -0 -0 0 0 -0 0 nan
nan 0 1 1 2 2 1 1 1 -0 -0 0 1 0 0 1 1 0 -0 0 0 -0 0 0 0 1 0 -0 -0 0 0 -0 -0 0 0 -0 -0 nan
nan 0 1 2 1 0 0 0 0 -0 -0 1 1 0 0 0 0 0 1 1 0 -0 -0 0 0 0 0 -0 -0 0 0 0 0 -0 -0 0 -0 nan
nan 0 1 1 1 1 0 1 0 -1 0 1 1 0 1 1 1 1 1 1 0 -0 0 1 0 0 0 -0 -0 0 0 0 -0 -0 -0 -0 -0 nan
nan 0 1 1 1 1 1 0 0 0 1 0 1 1 1 1 1 1 1 1 0 -0 0 -0 -0 0 0 -0 0 0 0 0 -0 -0 -0 -0 0 nan
nan 0 1 1 1 1 1 0 1 1 1 1 1 1 1 1 1 1 0 0 0 0 0 -0 -0 0 0 0 0 0 0 0 0 0 0 0 0 nan
nan 1 1 1 1 1 0 0 1 1 1 0 1 1 2 1 0 1 1 0 0 -0 0 0 -0 -0 0 0 0 0 0 0 0 0 0 0 0 nan
nan 1 1 1 1 0 0 1 1 1 0 0 1 2 1 0 1 1 0 0 0 -0 0 0 -0 -1 -1 -0 0 0 -0 -0 0 0 0 0 0 nan
nan 1 1 1 0 0 1 1 1 1 0 0 1 1 0 1 0 0 0 0 0 0 0 0 0 -0 -0 -1 -1 0 -0 -0 -0 -0 -0 -0 0 nan
nan 0 1 1 1 1 1 1 1 0 0 1 1 1 0 0 0 0 0 0 0 0 0 0 0 0 -0 -1 -1 -0 -1 -0 -0 -1 -1 -1 -0 nan
nan 0 1 1 1 1 1 1 1 0 1 1 1 0 0 0 0 0 0 0 0 0 0 -0 -0 0 0 0 -1 -1 -1 -1 -0 -0 -1 -1 -0 nan
nan 1 1 1 1 1 2 1 1 1 1 1 1 0 0 0 0 0 0 0 0 0 0 -0 -0 -0 0 0 0 -1 0 -0 -1 -0 -0 -1 -0 nan
nan 1 1 0 1 1 1 1 1 2 1 1 0 0 0 0 0 0 0 0 0 0 -0 -0 -0 -0 0 0 0 -0 -0 -0 -0 -0 -0 -1 -0 nan
nan 1 0 0 1 1 1 1 1 1 1 1 0 0 0 0 0 0 0 0 0 0 -0 -0 -0 -0 -0 0 0 -0 -1 -0 -0 0 0 -1 -1 nan
nan 1 1 1 1 1 1 1 1 1 1 0 0 0 0 0 0 0 0 0 0 0 -0 -0 -0 -1 -1 -1 -0 1 -0 -0 -1 -0 0 -0 -1 nan
nan 1 1 1 1 1 1 1 1 1 1 0 -0 0 0 0 0 0 0 0 0 0 -0 -0 -0 -0 -0 -1 -2 -0 1 0 -0 -1 -0 -0 -0 nan
nan 0 0 1 1 1 1 1 1 1 1 0 0 0 0 0 0 0 0 0 0 -0 -0 0 0 -0 -0 -0 -0 -1 -0 0 1 0 0 -0 -1 nan
nan 0 0 0 0 1 1 1 1 1 1 0 0 0 0 0 0 0 0 0 0 -0 -0 0 0 0 0 -0 -0 -0 -1 -0 0 1 1 1 0 nan
nan nan nan nan nan nan nan nan nan nan nan nan nan nan nan nan nan nan nan nan nan nan nan nan nan nan nan nan nan nan nan nan nan nan nan nan nan nan
Wind_Speed
32 31 30 27 28 24 23 20 16 13 16 18 22 23 26 26 25 22 22 20 18 16 14 14 15 15 15 15 15 15 15 16 16 18 20 21 22 22
32 32 32 32 30 28 27 25 23 17 12 16 20 21 23 25 26 24 25 20 18 17 16 16 17 17 16 15 14 16 16 18 19 20 21 22 24 23
32 32 32 33 32 31 28 28 27 25 23 20 22 21 21 23 26 26 26 22 19 18 17 18 18 18 16 15 15 16 18 20 21 23 23 24 24 19
33 32 32 33 33 32 31 31 29 26 25 28 27 25 22 22 24 25 23 22 21 19 17 19 18 18 16 15 17 19 20 21 23 24 25 25 21 22
34 33 32 33 33 34 34 30 28 26 29 33 30 25 22 22 23 24 22 23 20 20 19 19 19 17 16 16 18 20 21 23 24 24 23 23 24 27
35 34 32 34 35 31 30 32 29 28 32 31 29 24 23 23 24 22 22 18 20 20 19 19 18 16 16 17 19 20 22 23 23 22 22 24 26 26
40 39 41 40 35 30 34 33 27 30 30 30 27 27 24 24 23 19 21 21 20 19 19 19 18 16 17 18 19 21 23 23 20 20 24 25 26 27
40 39 38 39 36 34 31 26 26 28 30 29 28 27 24 19 23 26 23 21 17 21 17 18 16 16 17 18 20 21 22 19 19 23 24 25 26 28
26 28 33 33 32 30 26 25 24 24 22 23 26 25 25 25 25 22 20 18 17 18 16 15 15 15 16 17 21 20 18 16 22 22 23 25 27 29
19 22 24 28 28 29 29 27 26 24 23 23 23 20 19 19 20 20 15 16 17 18 16 14 16 15 14 17 20 16 14 20 20 20 23 25 26 29
20 19 22 23 27 31 31 28 27 26 26 25 23 23 24 18 15 16 16 16 17 16 13 13 14 15 16 15 13 12 18 18 20 21 22 24 25 29
21 21 21 25 29 28 29 27 27 28 28 27 25 24 18 18 19 21 16 17 15 13 13 10 12 15 11 9 13 17 16 17 21 24 24 24 27 31
19 23 25 27 28 29 28 27 27 27 26 24 21 21 20 20 17 15 16 15 13 12 12 11 12 13 14 17 16 17 19 21 22 23 23 24 26 28
17 21 23 27 29 31 30 29 28 27 22 21 21 19 18 16 16 15 13 12 11 11 11 11 11 12 15 19 21 21 20 21 23 23 26 27 27 30
14 15 20 26 29 30 29 29 26 24 23 22 18 17 16 15 14 12 11 10 10 9 9 9 10 12 15 18 23 24 26 24 20 26 28 30 31 32
16 14 17 25 28 28 28 26 25 24 22 18 18 16 15 14 13 12 11 9 8 8 8 9 10 13 16 18 21 21 18 22 26 26 30 33 32 31
13 16 23 29 30 29 28 28 28 26 21 20 17 16 15 14 13 11 9 7 7 7 8 9 11 14 16 18 19 15 19 23 26 30 31 34 32 29
14 21 27 31 32 32 33 32 27 24 22 18 16 16 15 14 12 10 8 6 6 7 8 10 13 15 17 16 17 19 21 27 28 29 29 33 35 28
15 22 30 34 34 35 34 30 28 24 21 18 17 16 15 13 11 9 7 6 6 7 8 11 14 16 17 19 20 16 22 25 27 29 29 31 36 37
18 25 34 36 36 36 32 29 24 22 20 17 17 16 14 11 9 8 6 5 5 7 9 11 13 15 16 18 22 18 17 25 26 29 33 34 34 35
25 29 34 35 33 31 28 24 22 21 19 17 15 14 13 11 9 7 6 5 6 9 11 12 12 13 14 16 20 22 18 14 20 28 31 34 36 41
27 30 32 30 27 26 26 25 23 22 20 17 15 13 11 10 9 8 6 4 7 10 12 12 12 12 13 15 19 22 22 21 19 21 24 22 28 33
27 23 23 23 24 26 26 24 22 21 19 17 14 12 12 11 9 6 5 6 8 11 12 12 11 11 12 14 18 19 21 24 29 30 23 24 29 31
Wind_Direction
229 230 231 231 234 232 236 240 234 222 244 244 242 242 241 239 244 241 246 246 253 261 270 282 293 298 304 306 307 311 307 309 313 313 315 318 318 317
233 233 234 236 237 239 240 242 244 241 242 254 250 250 244 243 240 236 244 247 251 262 274 286 292 299 302 305 307 301 308 312 315 314 315 315 313 315
236 235 235 238 240 241 242 242 243 239 235 232 242 253 250 239 240 234 242 247 253 262 269 284 293 296 299 300 299 312 311 312 314 314 314 313 314 318
239 239 236 238 239 244 244 243 244 247 248 241 245 251 248 239 241 237 241 243 252 261 272 279 290 292 293 297 310 309 309 310 312 314 314 314 314 312
240 243 243 242 242 241 242 242 240 252 249 252 248 249 241 238 237 233 235 242 247 262 270 281 288 289 290 304 304 307 309 310 311 311 314 315 314 313
238 239 240 243 243 241 244 242 256 242 246 247 245 243 235 233 230 228 236 249 253 263 272 279 286 284 293 301 303 305 307 308 311 313 315 314 314 314
234 237 244 242 244 243 242 251 238 242 244 243 237 235 229 224 226 234 243 246 250 259 273 277 279 284 295 300 300 304 307 311 311 314 316 313 315 314
242 246 246 249 249 246 246 230 240 244 241 234 230 231 232 220 245 236 234 233 251 263 264 271 276 287 291 296 303 307 309 310 313 316 316 314 315 313
246 249 249 248 243 237 224 231 224 227 232 243 241 230 228 235 238 232 228 253 240 254 265 270 277 282 290 300 304 308 308 309 315 315 314 315 314 312
245 247 246 242 234 225 222 217 224 232 223 220 218 223 226 232 234 242 238 232 248 258 263 268 278 286 296 303 303 307 315 316 312 312 314 314 313 311
246 241 239 232 225 222 219 223 219 205 204 208 217 228 235 234 230 222 229 240 244 256 256 269 279 293 305 305 302 312 319 316 315 316 315 316 316 316
241 236 232 228 228 225 224 222 214 212 212 218 226 236 218 212 220 231 237 234 232 249 269 275 295 310 319 307 310 316 321 320 320 321 320 321 324 321
243 241 235 228 229 227 223 219 218 220 220 227 229 217 218 227 231 228 227 229 235 241 270 285 300 308 309 305 318 323 332 325 322 319 320 325 326 324
248 247 240 235 226 220 215 212 218 215 224 223 219 214 215 212 216 219 223 231 241 254 277 289 302 308 309 313 321 328 329 326 327 326 328 329 328 329
241 243 241 229 223 217 211 215 212 215 216 209 208 205 203 210 214 218 224 234 249 265 281 296 306 311 315 315 317 330 327 329 332 331 329 329 333 332
233 235 234 220 218 211 207 207 208 210 208 208 200 200 208 209 214 219 227 241 260 275 293 303 308 312 315 316 313 324 325 325 333 333 331 328 333 337
235 214 202 207 208 200 199 201 201 203 203 200 197 203 204 210 214 221 231 247 266 285 298 306 310 313 315 317 320 329 330 332 335 333 331 328 335 343
232 218 210 210 205 198 200 199 199 199 200 192 197 203 208 211 214 220 232 250 270 289 303 312 316 318 320 330 336 338 338 336 333 330 333 332 333 345
240 222 215 208 202 197 200 199 196 197 198 192 201 206 207 210 213 221 235 249 270 295 309 319 321 324 328 333 333 345 330 332 330 333 336 334 330 335
230 219 209 207 202 200 201 202 198 194 190 192 202 203 205 209 216 221 233 253 283 303 319 322 323 326 329 327 325 344 345 337 335 332 334 331 330 331
216 214 213 211 206 204 202 198 194 192 189 192 200 203 205 209 212 216 222 253 298 314 322 326 321 318 321 319 324 336 350 345 336 334 339 335 337 335
216 216 213 213 206 201 195 192 191 190 186 191 197 199 203 207 207 210 228 267 303 315 320 323 320 321 326 326 327 335 341 345 346 343 347 343 338 327
216 216 214 204 196 194 196 197 195 188 184 187 193 201 204 199 199 215 247 279 306 318 323 326 327 328 331 331 332 338 342 346 347 348 350 350 349 346
Height
1534 1538 1540 1544 1546 1549 1551 1554 1557 1558 1559 1561 1562 1563 1565 1566 1568 1571 1571 1570 1572 1574 1574 1573 1573 1571 1570 1568 1566 1564 1563 1561 1558 1556 1555 1554 1551 1547
1529 1533 1536 1539 1541 1545 1546 1550 1552 1554 1556 1557 1557 1559 1560 1561 1564 1566 1566 1567 1568 1569 1570 1569 1569 1568 1567 1565 1562 1561 1559 1557 1554 1553 1550 1547 1546 1543
1523 1526 1530 1533 1536 1538 1542 1545 1546 1549 1551 1551 1553 1554 1555 1557 1559 1561 1561 1563 1564 1564 1565 1564 1565 1564 1563 1561 1558 1556 1555 1552 1550 1548 1546 1543 1540 1539
1517 1521 1524 1526 1529 1532 1535 1539 1541 1546 1549 1549 1547 1549 1551 1552 1555 1557 1558 1559 1559 1560 1561 1560 1560 1560 1558 1557 1554 1552 1550 1547 1545 1543 1540 1538 1535 1533
1511 1515 1518 1521 1522 1525 1529 1533 1536 1539 1543 1544 1544 1545 1547 1548 1550 1553 1554 1554 1555 1556 1557 1557 1557 1556 1554 1551 1550 1548 1546 1544 1540 1537 1535 1532 1530 1528
1505 1507 1510 1514 1517 1519 1524 1526 1528 1533 1538 1538 1538 1541 1543 1544 1546 1549 1549 1550 1551 1552 1552 1552 1552 1551 1550 1548 1546 1544 1542 1539 1535 1533 1531 1528 1525 1521
1495 1498 1503 1505 1508 1513 1516 1519 1523 1527 1531 1531 1533 1536 1537 1539 1542 1545 1545 1546 1547 1547 1548 1548 1547 1546 1545 1544 1542 1540 1537 1533 1531 1529 1526 1523 1519 1516
1488 1492 1494 1497 1502 1506 1510 1515 1519 1522 1524 1526 1528 1530 1533 1536 1539 1539 1540 1541 1543 1543 1543 1543 1543 1542 1541 1539 1538 1535 1532 1529 1527 1525 1521 1518 1515 1511
1480 1484 1488 1492 1496 1501 1505 1510 1514 1517 1520 1524 1526 1528 1530 1532 1535 1536 1536 1537 1538 1539 1539 1539 1539 1538 1537 1535 1533 1530 1528 1526 1524 1520 1517 1513 1510 1506
1474 1478 1482 1487 1490 1496 1503 1506 1509 1512 1516 1519 1522 1525 1527 1529 1531 1532 1533 1535 1536 1536 1537 1536 1535 1534 1533 1531 1528 1526 1525 1522 1519 1516 1513 1509 1505 1501
1472 1473 1480 1483 1487 1493 1497 1500 1505 1507 1512 1516 1518 1521 1522 1524 1527 1528 1530 1531 1532 1533 1533 1533 1531 1530 1529 1526 1524 1523 1521 1518 1515 1512 1509 1505 1500 1495
1469 1473 1475 1480 1483 1487 1492 1496 1500 1503 1507 1511 1513 1516 1517 1521 1523 1524 1526 1528 1529 1529 1529 1530 1528 1526 1524 1523 1521 1520 1517 1514 1511 1507 1504 1500 1496 1489
1466 1470 1472 1476 1479 1483 1488 1492 1496 1499 1503 1507 1509 1512 1514 1516 1519 1522 1523 1524 1525 1526 1526 1525 1524 1523 1521 1519 1518 1515 1512 1509 1506 1503 1500 1496 1491 1487
1465 1466 1468 1471 1474 1479 1484 1488 1492 1496 1500 1502 1505 1508 1511 1514 1517 1518 1520 1521 1522 1523 1522 1521 1520 1519 1517 1514 1512 1511 1508 1504 1500 1496 1493 1490 1486 1481
1461 1463 1465 1468 1471 1476 1481 1484 1489 1493 1496 1499 1502 1505 1509 1512 1515 1516 1518 1518 1519 1519 1519 1518 1517 1515 1513 1510 1507 1505 1500 1498 1496 1492 1488 1484 1479 1474
1457 1459 1462 1465 1469 1474 1477 1482 1486 1489 1492 1496 1500 1503 1507 1510 1512 1513 1515 1516 1516 1516 1515 1515 1514 1513 1510 1507 1504 1501 1499 1494 1491 1488 1483 1478 1474 1469
1454 1456 1459 1462 1466 1471 1475 1478 1481 1485 1489 1493 1497 1502 1505 1507 1509 1511 1512 1513 1512 1512 1512 1512 1511 1509 1507 1504 1500 1498 1495 1491 1488 1483 1478 1472 1469 1464
1451 1454 1456 1460 1464 1466 1470 1474 1479 1483 1487 1491 1496 1500 1503 1505 1508 1509 1510 1510 1510 1509 1509 1509 1507 1505 1503 1500 1496 1494 1491 1487 1484 1480 1475 1468 1461 1460
1448 1451 1454 1457 1460 1464 1467 1472 1476 1480 1485 1490 1495 1498 1501 1503 1506 1507 1507 1508 1508 1508 1507 1506 1504 1502 1499 1495 1494 1491 1488 1485 1480 1475 1471 1466 1458 1452
1446 1450 1451 1454 1458 1461 1465 1470 1476 1480 1484 1489 1493 1496 1499 1502 1504 1504 1505 1506 1506 1505 1504 1503 1501 1499 1496 1493 1490 1490 1488 1481 1477 1472 1465 1460 1456 1449
1444 1448 1450 1453 1457 1461 1466 1471 1476 1479 1483 1488 1493 1495 1497 1499 1501 1502 1503 1504 1504 1503 1501 1500 1498 1496 1493 1491 1488 1486 1484 1483 1478 1470 1463 1455 1448 1439
1442 1446 1450 1454 1458 1462 1467 1471 1475 1478 1482 1486 1490 1493 1495 1498 1499 1500 1502 1501 1501 1501 1499 1497 1495 1493 1491 1488 1486 1483 1480 1478 1475 1471 1466 1460 1451 1440
1442 1447 1452 1455 1458 1462 1466 1470 1473 1477 1481 1485 1489 1492 1494 1495 1496 1498 1500 1499 1499 1497 1495 1493 1492 1490 1489 1487 1484 1481 1478 1474 1467 1463 1461 1457 1450 1442